THORAD DELTA 1 DEB, 9986

Orbit data source: Space-Track

THORAD DELTA 1 DEB, 9986 is space debris in LEO originally from a launch on Fri, 15 Nov 1974 UTC launched from the Air Force Western Test Range (AFWTR). Debris objects in space refer to the collection of defunct objects orbiting the Earth. Examples of debris include non-operational satellites, rocket bodies, and fragments generated from explosions, collisions, or faulty payload assembly.

Loading next visibility...
Identifier
9986, 1974-089ED
Orbit
LEO
Country
Flag of USUS
Related business
Manufacturer
Unknown
Mission
Spacecraft
Bus & Motor
Unknown
Mass
Unknown
Launch date (UTC)
1974-11-15 (52 years ago)
Launch vehicle
Unknown
Launch site
Air Force Western Test Range (AFWTR)
Object type
Payload
Rocket body
Debris
Shape & HBR
Unknown shape, 1.1 m
Radar Cross Section
Small (<0.1 m²)

Expand to show TLE details & history
Last TLE update: 13 hours ago

TLE from 13 hours ago
0 THORAD DELTA 1 DEB
1 09986U 74089ED  26144.66983175  .00004904  00000-0  50203-2 0  9991
2 09986 103.2717  71.7139 0365268 181.3197 178.6991 13.51512292428548
Epoch: 2026-05-24T16:04Z
TLE epoch observation values (Epoch: 2026-05-24T16:04:33.463Z)
Latitude
0.00005°
Longitude
-51.69419°
Altitude
1,341.264 km
Speed
7.055 km/s
True Right ascension
04h 46m 51s
True Declination
0° 00' 00"
Sunlit
Object was in daylight at epoch
Visualization orbit readout
Latitude
Unknown
Longitude
Unknown
Altitude
Unknown
Speed
Unknown
Apparent Right ascension
Unknown
Apparent Declination
Unknown
Sunlit
N/A
Visualization observer readout
Local Sidereal Time
14:11:14
Azimuth
Unknown
Elevation
Unknown
Doppler factor
Unknown
Orbital elements
Apogee altitude
1,336.055 km
Perigee altitude
792.365 km
Semi-major axis
7,442.347 km
Eccentricity
0.03653
Inclination
103.2717°
RAAN
71.7139°
Arg. of periapsis
181.3197°
True anomaly
178.78997°
Mean anomaly
178.6991°
Eccentric anomaly
178.74494°
Mean motion
3.38048 °/min
Orbital period
106.49 mins
BSTAR
0.0050203
Loading maneuver chart data...
Computing Atmospheric mass density...

Documentation

Showing up to 5 results
|